Location: Hilton Head Island
(32.2163°N, 80.7526°W)
Time: 11:27:36
(UTC-04:00)

S-56A Canister/Altair - Pass Details

Date: 18 February 2026
Orbit: 633 x 2484 km, 38.9° (Epoch: 10 March)

Event Time Altitude Azimuth Distance (km) Brightness Sun altitude
Exits shadow 03:47:00 71° 59° (ENE) 1,783 9.2 -41.8°
Drops below altitude 10° 03:58:42 10° 105° (ESE) 4,717 12.1 -39.4°
Sets 04:02:55 0° 107° (ESE) 5,909 12.8 -38.5°
